Location: Lake Hudson State Recreational Area
(41.8372°N, 84.2445°W)
Time: 14:10:03
(UTC-04:00)

Tiangong 2 - Visible Passes

Search period start: 20 October 2017 00:00
Search period end: 30 October 2017 00:00
Orbit: 388 x 392 km, 42.8° (Epoch: 20 October)

Date Brightness Start Highest point End Pass type
(mag) Time Alt. Az. Time Alt. Az. Time Alt. Az.
20 Oct 3.9 05:38:00 16° ESE 05:38:00 16° ESE 05:38:45 10° ESE visible
20 Oct 3.3 07:10:23 10° WSW 07:12:02 13° SW 07:13:40 10° S visible
21 Oct 3.2 06:15:34 18° S 06:15:34 18° S 06:16:54 10° SSE visible
29 Oct 3.2 19:55:03 10° S 19:56:42 15° SSE 19:56:42 15° SSE visible
